This is the latest recevied weather packets stored in our database for station/object W9LRT-WX. If no packets are shown the sender has not sent any weather packets the latest 10 day(s).
| Time | Temp. | Humidity | Pressure | Rain* | Wind** | Luminosity | Snow |
|---|---|---|---|---|---|---|---|
| 1777714465 | -0.56° C | 87% | 1017.3 hPa | 0 mm | - | 0 W/m² | - |
| 1777713564 | 0° C | 87% | 1017.3 hPa | 0 mm | - | 0 W/m² | - |
| 1777712663 | 0° C | 87% | 1017.3 hPa | 0 mm | - | 0 W/m² | - |
| 1777711761 | 0° C | 87% | 1017.3 hPa | 0 mm | - | 0 W/m² | - |
| 1777710861 | 0° C | 88% | 1017.4 hPa | 0 mm | - | 0 W/m² | - |
| 1777709959 | 0° C | 88% | 1017.4 hPa | 0 mm | - | 0 W/m² | - |
| 1777709059 | -0.56° C | 87% | 1017.3 hPa | 0 mm | - | 0 W/m² | - |
| 1777708159 | 0° C | 87% | 1017.2 hPa | 0 mm | - | 0 W/m² | - |
| 1777707257 | 0° C | 87% | 1017.3 hPa | 0 mm | - | 0 W/m² | - |
| 1777706355 | 0° C | 86% | 1017.2 hPa | 0 mm | - | 0 W/m² | - |
| 1777705455 | 0° C | 85% | 1017.2 hPa | 0 mm | - | 0 W/m² | - |
| 1777704549 | 0° C | 84% | 1017.2 hPa | 0 mm | - | 0 W/m² | - |
| 1777703650 | 0.56° C | 83% | 1017.3 hPa | 0 mm | - | 0 W/m² | - |
| 1777702750 | 0.56° C | 83% | 1017.4 hPa | 0 mm | - | 0 W/m² | - |
| 1777701850 | 0.56° C | 82% | 1017.5 hPa | 0 mm | - | 0 W/m² | - |
| 1777700949 | 1.11° C | 81% | 1017.5 hPa | 0 mm | - | 0 W/m² | - |
| 1777700048 | 1.11° C | 80% | 1017.7 hPa | 0 mm | - | 0 W/m² | - |
| 1777699141 | 1.67° C | 79% | 1017.8 hPa | 0 mm | - | 0 W/m² | - |
| 1777698242 | 1.67° C | 78% | 1017.8 hPa | 0 mm | - | 0 W/m² | - |
| 1777697342 | 2.22° C | 77% | 1017.9 hPa | 0 mm | - | 0 W/m² | - |
| 1777696442 | 2.22° C | 77% | 1017.9 hPa | 0 mm | - | 0 W/m² | - |
| 1777695543 | 2.22° C | 75% | 1017.8 hPa | 0 mm | - | 0 W/m² | - |
| 1777694639 | 2.78° C | 74% | 1017.8 hPa | 0 mm | - | 0 W/m² | - |
| 1777693739 | 2.78° C | 73% | 1017.6 hPa | 0 mm | - | 0 W/m² | - |
| 1777692841 | 2.78° C | 72% | 1017.4 hPa | 0 mm | - | 0 W/m² | - |
* Rain latest hour (hover to see other rain measurements)
** Current wind speed in m/s (hover to see current wind gust speed)